Hourly Data Report for November 23, 2014

All times are specified in Local Standard Time (LST). Add 1 hour to adjust for Daylight Saving Time where and when it is observed.

Metadata including Station Name, Province, Latitude, Longitude, Elevation, Climate ID, WMO ID, TC ID
PUVIRNITUQ A
QUEBEC
Latitude: 60°03'00.000" N Longitude: 77°17'00.000" W Elevation: 25.30 m
Climate ID: 7106222 WMO ID: TC ID: YPX
Hourly Data Report for November 22, 2014
Temp Definition
°C

Dew Point Temp Definition
°C

Rel Hum Definition
%

Wind Dir Definition
10's deg
Wind Spd Definition
km/h

Visibility Definition
km

Stn Press Definition
kPa

Hmdx Definition

Wind Chill Definition

Weather Definition

00:00 -11.2 -13.9 80 19 30 6.4 99.45 -21 Snow
01:00 -9.4 -11.3 86 17 26 8.0 99.41 -18 Snow
02:00 -9.7 -12.1 83 18 30 4.8 99.40 -19 Snow
03:00 -11.2 -13.9 80 16 24 9.7 99.36 -20 Snow
04:00
05:00
06:00
07:00
08:00 -12.4 -15.3 79 16 26 25.0 99.20 -22 Cloudy
09:00 -12.6 -14.6 85 16 28 25.0 99.16 -23 Cloudy
10:00 -13.5 -16.1 81 15 24 25.0 99.12 -23 Cloudy
11:00 -13.6 -17.3 74 15 22 25.0 99.10 -23 Cloudy
12:00 -13.5 -17.7 71 14 30 25.0 99.06 -24 Cloudy
13:00 -14.0 -18.4 69 15 26 25.0 99.03 -24 Mostly Cloudy
14:00 -14.8 -18.2 75 15 22 25.0 99.02 -24 Mostly Cloudy
15:00 -15.9 -19.5 74 12 20 25.0 99.06 -25 Mostly Cloudy
16:00 -16.8 -19.3 81 12 11 25.0 99.09 -24 Cloudy
17:00 -15.0 -17.8 79 14 22 25.0 99.13 -25 Cloudy
18:00 -14.7 -18.7 72 14 19 16.1 99.12 -24 Snow
19:00 -15.2 -19.3 71 13 24 12.9 99.15 -25 Snow
20:00 -15.2 -18.7 75 13 22 16.1 99.16 -25 Snow
21:00 -14.9 -17.7 79 12 19 16.1 99.16 -24 Snow
22:00 -14.9 -17.7 79 13 17 16.1 99.17 -23 Snow
23:00 -15.2 -17.5 83 13 22 12.9 99.17 -25 Snow

Notes on Data Quality.

Legend
  • E = Estimated
  • M = Missing
  • NA = Not Available
  • ‡ = Partner data that is not subject to review by the National Climate Archives